| time (UTC) | temp F | wind direction | speed MPH | gust MPH | rain 1hr in | rain 24hr in | rain mn in | humidity % | barometer mb |
| 20260505054506 | 60 | 223 | 1.0 | 5.0 | 0.00 | 0.00 | 0.00 | 74 | 1009.6 |
| 20260505054007 | 60 | 314 | 1.0 | 3.0 | 0.00 | 0.00 | 0.00 | 73 | 1009.6 |
| 20260505053505 | 60 | 117 | 1.0 | 4.0 | 0.00 | 0.00 | 0.00 | 73 | 1009.5 |
| 20260505053006 | 60 | 46 | 1.0 | 4.0 | 0.00 | 0.00 | 0.00 | 73 | 1009.5 |
| 20260505052506 | 60 | 129 | 1.0 | 5.0 | 0.00 | 0.00 | 0.00 | 73 | 1009.5 |
| 20260505052005 | 61 | 269 | 2.0 | 5.0 | 0.00 | 0.00 | 0.00 | 74 | 1009.5 |
| 20260505051506 | 61 | 269 | 1.0 | 4.0 | 0.00 | 0.00 | 0.00 | 74 | 1009.4 |
| 20260505051006 | 61 | 165 | 1.0 | 2.0 | 0.00 | 0.00 | 0.00 | 74 | 1009.4 |
| 20260505050505 | 61 | 1 | 1.0 | 3.0 | 0.00 | 0.00 | 0.00 | 74 | 1009.3 |
| 20260505041005 | 62 | 135 | 1.0 | 5.0 | 0.00 | 0.00 | 0.00 | 75 | 1009.2 |
| 20260505040506 | 62 | 72 | 1.0 | 3.0 | 0.00 | 0.00 | 0.00 | 75 | 1009.0 |
| 20260505040006 | 62 | 89 | 1.0 | 3.0 | 0.00 | 0.00 | 0.00 | 75 | 1009.0 |
| 20260505035505 | 62 | 124 | 1.0 | 3.0 | 0.00 | 0.00 | 0.00 | 75 | 1008.9 |
| 20260505034505 | 63 | 344 | 1.0 | 4.0 | 0.00 | 0.00 | 0.00 | 74 | 1008.9 |
| 20260505034006 | 63 | 142 | 2.0 | 4.0 | 0.00 | 0.00 | 0.00 | 72 | 1008.8 |
| 20260505033506 | 64 | 161 | 1.0 | 2.0 | 0.00 | 0.00 | 0.00 | 71 | 1008.7 |
| 20260505033010 | 64 | 178 | 1.0 | 3.0 | 0.00 | 0.00 | 0.00 | 70 | 1008.6 |
| 20260505032505 | 65 | 89 | 1.0 | 3.0 | 0.00 | 0.00 | 0.00 | 69 | 1008.5 |
| 20260505032005 | 65 | 296 | 1.0 | 3.0 | 0.00 | 0.00 | 0.00 | 67 | 1008.4 |
| 20260505031505 | 66 | 35 | 1.0 | 3.0 | 0.00 | 0.00 | 0.00 | 63 | 1008.4 |
| 20260505031006 | 67 | 295 | 1.0 | 3.0 | 0.00 | 0.00 | 0.00 | 60 | 1008.3 |
| 20260505030507 | 69 | 46 | 1.0 | 2.0 | 0.00 | 0.00 | 0.00 | 57 | 1008.2 |
| 20260505030008 | 70 | 1 | 0.0 | 2.0 | 0.00 | 0.00 | 0.00 | 53 | 1008.2 |
| 20260505025505 | 71 | 72 | 1.0 | 2.0 | 0.00 | 0.00 | 0.00 | 51 | 1008.3 |
| 20260505025007 | 71 | 135 | 1.0 | 2.0 | 0.00 | 0.00 | 0.00 | 48 | 1008.4 |
| 20260505024506 | 72 | 269 | 1.0 | 2.0 | 0.00 | 0.00 | 0.00 | 45 | 1008.4 |
| 20260505024005 | 72 | 178 | 0.0 | 3.0 | 0.00 | 0.00 | 0.00 | 45 | 1008.4 |
| 20260505023507 | 72 | 113 | 1.0 | 6.0 | 0.00 | 0.00 | 0.00 | 44 | 1008.4 |
| 20260505023006 | 72 | 135 | 2.0 | 6.0 | 0.00 | 0.00 | 0.00 | 44 | 1008.5 |
| 20260505022504 | 72 | 135 | 2.0 | 5.0 | 0.00 | 0.00 | 0.00 | 44 | 1008.5 |
| 20260505022006 | 71 | 98 | 2.0 | 5.0 | 0.00 | 0.00 | 0.00 | 44 | 1008.6 |
| 20260505021507 | 71 | 178 | 2.0 | 7.0 | 0.00 | 0.00 | 0.00 | 45 | 1008.6 |
| 20260505021005 | 71 | 173 | 2.0 | 7.0 | 0.00 | 0.00 | 0.00 | 45 | 1008.6 |
| 20260505020505 | 71 | 213 | 3.0 | 7.0 | 0.00 | 0.00 | 0.00 | 44 | 1008.7 |
| 20260505020015 | 71 | 127 | 4.0 | 7.0 | 0.00 | 0.00 | 0.00 | 44 | 1008.8 |
| 20260505015005 | 71 | 178 | 3.0 | 9.0 | 0.00 | 0.00 | 0.00 | 45 | 1008.8 |
| 20260505014510 | 71 | 165 | 3.0 | 8.0 | 0.00 | 0.00 | 0.00 | 44 | 1008.8 |
| 20260505014005 | 71 | 89 | 4.0 | 8.0 | 0.00 | 0.00 | 0.00 | 45 | 1008.8 |
| 20260505013505 | 72 | 113 | 2.0 | 6.0 | 0.00 | 0.00 | 0.00 | 46 | 1008.8 |
| 20260505013008 | 72 | 161 | 3.0 | 6.0 | 0.00 | 0.00 | 0.00 | 46 | 1008.8 |
| 20260505012504 | 72 | 131 | 2.0 | 6.0 | 0.00 | 0.00 | 0.00 | 45 | 1008.8 |
| 20260505012006 | 72 | 223 | 2.0 | 8.0 | 0.00 | 0.00 | 0.00 | 47 | 1008.8 |
| 20260505011510 | 72 | 135 | 2.0 | 8.0 | 0.00 | 0.00 | 0.00 | 48 | 1008.8 |
| 20260505011005 | 72 | 135 | 3.0 | 7.0 | 0.00 | 0.00 | 0.00 | 46 | 1008.9 |
| 20260505010505 | 73 | 190 | 2.0 | 6.0 | 0.00 | 0.00 | 0.00 | 49 | 1008.9 |
| 20260505010009 | 73 | 269 | 2.0 | 6.0 | 0.00 | 0.00 | 0.00 | 47 | 1008.9 |
| 20260505005506 | 74 | 131 | 2.0 | 6.0 | 0.00 | 0.00 | 0.00 | 49 | 1008.9 |
| 20260505003504 | 74 | 234 | 2.0 | 6.0 | 0.00 | 0.00 | 0.00 | 49 | 1008.9 |
| 20260505003012 | 74 | 161 | 3.0 | 6.0 | 0.00 | 0.00 | 0.00 | 48 | 1008.9 |
| 20260505002505 | 74 | 269 | 2.0 | 7.0 | 0.00 | 0.00 | 0.00 | 51 | 1009.0 |
| 20260505002005 | 74 | 314 | 2.0 | 7.0 | 0.00 | 0.00 | 0.00 | 49 | 1009.0 |
| 20260505001510 | 74 | 193 | 2.0 | 6.0 | 0.00 | 0.00 | 0.00 | 49 | 1009.0 |
| 20260505001006 | 74 | 117 | 2.0 | 7.0 | 0.00 | 0.00 | 0.00 | 48 | 1009.1 |
| 20260505000504 | 74 | 1 | 2.0 | 6.0 | 0.00 | 0.00 | 0.00 | 49 | 1009.1 |
| 20260505000008 | 74 | 117 | 2.0 | 6.0 | 0.00 | 0.00 | 0.00 | 48 | 1009.1 |
| 20260504235504 | 75 | 178 | 2.0 | 5.0 | 0.00 | 0.00 | 0.00 | 46 | 1009.1 |
| 20260504235005 | 75 | 63 | 2.0 | 7.0 | 0.00 | 0.00 | 0.00 | 49 | 1009.3 |
| 20260504234506 | 75 | 206 | 2.0 | 7.0 | 0.00 | 0.00 | 0.00 | 48 | 1009.3 |
| 20260504234005 | 75 | 269 | 3.0 | 7.0 | 0.00 | 0.00 | 0.00 | 47 | 1009.3 |
| 20260504233505 | 75 | 269 | 2.0 | 7.0 | 0.00 | 0.00 | 0.00 | 45 | 1009.4 |
| 20260504233005 | 75 | 213 | 2.0 | 7.0 | 0.00 | 0.00 | 0.00 | 46 | 1009.3 |
| 20260504232504 | 76 | 173 | 3.0 | 7.0 | 0.00 | 0.00 | 0.00 | 44 | 1009.3 |
| 20260504231505 | 76 | 187 | 2.0 | 6.0 | 0.00 | 0.00 | 0.00 | 45 | 1009.4 |
| 20260504231005 | 76 | 53 | 3.0 | 6.0 | 0.00 | 0.00 | 0.00 | 44 | 1009.4 |
| 20260504230504 | 76 | 344 | 2.0 | 8.0 | 0.00 | 0.00 | 0.00 | 43 | 1009.5 |
| 20260504230005 | 76 | 197 | 3.0 | 8.0 | 0.00 | 0.00 | 0.00 | 43 | 1009.5 |
| 20260504225005 | 75 | 314 | 2.0 | 6.0 | 0.00 | 0.00 | 0.00 | 45 | 1009.6 |
| 20260504224508 | 75 | 288 | 3.0 | 6.0 | 0.00 | 0.00 | 0.00 | 43 | 1009.6 |
| 20260504224004 | 76 | 223 | 1.0 | 5.0 | 0.00 | 0.00 | 0.00 | 46 | 1009.7 |
| 20260504223504 | 75 | 203 | 3.0 | 5.0 | 0.00 | 0.00 | 0.00 | 48 | 1009.7 |
| 20260504223006 | 75 | 281 | 2.0 | 5.0 | 0.00 | 0.00 | 0.00 | 48 | 1009.8 |
| 20260504222505 | 74 | 260 | 2.0 | 5.0 | 0.00 | 0.00 | 0.00 | 48 | 1009.9 |
| 20260504222007 | 74 | 218 | 2.0 | 7.0 | 0.00 | 0.00 | 0.00 | 48 | 1010.0 |
| 20260504221505 | 74 | 46 | 3.0 | 7.0 | 0.00 | 0.00 | 0.00 | 49 | 1009.9 |
| 20260504221006 | 74 | 283 | 3.0 | 6.0 | 0.00 | 0.00 | 0.00 | 48 | 1009.9 |
| 20260504220504 | 74 | 246 | 3.0 | 6.0 | 0.00 | 0.00 | 0.00 | 48 | 1010.0 |
| 20260504220009 | 74 | 98 | 2.0 | 6.0 | 0.00 | 0.00 | 0.00 | 51 | 1010.0 |
| 20260504215505 | 74 | 124 | 2.0 | 7.0 | 0.00 | 0.00 | 0.00 | 52 | 1010.0 |
| 20260504214505 | 74 | 269 | 2.0 | 6.0 | 0.00 | 0.00 | 0.00 | 55 | 1010.1 |
| 20260504214005 | 73 | 188 | 3.0 | 5.0 | 0.00 | 0.00 | 0.00 | 51 | 1010.0 |
| 20260504213505 | 73 | 206 | 2.0 | 7.0 | 0.00 | 0.00 | 0.00 | 50 | 1009.9 |
| 20260504211505 | 72 | 152 | 2.0 | 7.0 | 0.00 | 0.00 | 0.00 | 53 | 1010.0 |
| 20260504211005 | 72 | 117 | 3.0 | 6.0 | 0.00 | 0.00 | 0.00 | 49 | 1010.1 |
| 20260504210505 | 72 | 211 | 2.0 | 6.0 | 0.00 | 0.00 | 0.00 | 52 | 1010.0 |
| 20260504210005 | 72 | 279 | 2.0 | 7.0 | 0.00 | 0.00 | 0.00 | 52 | 1010.1 |
| 20260504205505 | 71 | 290 | 2.0 | 7.0 | 0.00 | 0.00 | 0.00 | 53 | 1010.1 |
| 20260504205006 | 71 | 301 | 2.0 | 6.0 | 0.00 | 0.00 | 0.00 | 56 | 1010.2 |
| 20260504204505 | 71 | 241 | 2.0 | 7.0 | 0.00 | 0.00 | 0.00 | 57 | 1010.2 |
| 20260504203005 | 72 | 168 | 3.0 | 6.0 | 0.00 | 0.00 | 0.00 | 54 | 1010.3 |
| 20260504202005 | 72 | 126 | 2.0 | 6.0 | 0.00 | 0.00 | 0.00 | 59 | 1010.2 |
| 20260504201506 | 72 | 89 | 3.0 | 7.0 | 0.00 | 0.00 | 0.00 | 54 | 1010.3 |
| 20260504201006 | 71 | 135 | 1.0 | 8.0 | 0.00 | 0.00 | 0.00 | 58 | 1010.3 |
| 20260504200505 | 71 | 291 | 3.0 | 8.0 | 0.00 | 0.00 | 0.00 | 57 | 1010.3 |
| 20260504200008 | 71 | 309 | 2.0 | 6.0 | 0.00 | 0.00 | 0.00 | 60 | 1010.4 |
| 20260504195506 | 71 | 113 | 2.0 | 6.0 | 0.00 | 0.00 | 0.00 | 56 | 1010.4 |
| 20260504194506 | 70 | 157 | 2.0 | 7.0 | 0.00 | 0.00 | 0.00 | 59 | 1010.4 |
| 20260504194005 | 70 | 126 | 2.0 | 6.0 | 0.00 | 0.00 | 0.00 | 60 | 1010.4 |
| 20260504193505 | 70 | 174 | 2.0 | 6.0 | 0.00 | 0.00 | 0.00 | 59 | 1010.4 |
| 20260504193006 | 70 | 178 | 2.0 | 5.0 | 0.00 | 0.00 | 0.00 | 62 | 1010.4 |
| 20260504192504 | 70 | 314 | 2.0 | 5.0 | 0.00 | 0.00 | 0.00 | 60 | 1010.3 |
| 20260504192005 | 70 | 195 | 2.0 | 5.0 | 0.00 | 0.00 | 0.00 | 60 | 1010.3 |
| 20260504191505 | 69 | 178 | 3.0 | 7.0 | 0.00 | 0.00 | 0.00 | 60 | 1010.4 |
| 20260504191006 | 69 | 178 | 3.0 | 7.0 | 0.00 | 0.00 | 0.00 | 59 | 1010.4 |
| 20260504190505 | 69 | 254 | 1.0 | 6.0 | 0.00 | 0.00 | 0.00 | 59 | 1010.4 |
| 20260504185505 | 69 | 178 | 3.0 | 6.0 | 0.00 | 0.00 | 0.00 | 61 | 1010.5 |
| 20260504185006 | 69 | 200 | 2.0 | 6.0 | 0.00 | 0.00 | 0.00 | 61 | 1010.5 |
| 20260504184005 | 69 | 154 | 1.0 | 6.0 | 0.00 | 0.00 | 0.00 | 65 | 1010.4 |
| 20260504183505 | 68 | 139 | 2.0 | 7.0 | 0.00 | 0.00 | 0.00 | 64 | 1010.5 |
| 20260504183006 | 68 | 223 | 2.0 | 7.0 | 0.00 | 0.00 | 0.00 | 64 | 1010.5 |
| 20260504182505 | 68 | 301 | 3.0 | 6.0 | 0.00 | 0.00 | 0.00 | 64 | 1010.5 |
| 20260504182004 | 68 | 161 | 2.0 | 5.0 | 0.00 | 0.00 | 0.00 | 66 | 1010.5 |
| 20260504181505 | 67 | 178 | 2.0 | 5.0 | 0.00 | 0.00 | 0.00 | 67 | 1010.6 |
| 20260504181005 | 67 | 241 | 3.0 | 6.0 | 0.00 | 0.00 | 0.00 | 67 | 1010.5 |
| 20260504180505 | 66 | 303 | 4.0 | 6.0 | 0.00 | 0.00 | 0.00 | 66 | 1010.5 |
| 20260504180327 | 67 | 89 | 3.0 | 6.0 | 0.00 | 0.00 | 0.00 | 68 | 1010.4 |
| 20260504151006 | 56 | 1 | 1.0 | 3.0 | 0.00 | 0.00 | 0.00 | 81 | 1010.5 |
| 20260504150504 | 55 | 1 | 1.0 | 3.0 | 0.00 | 0.00 | 0.00 | 82 | 1010.5 |
| 20260504141004 | 50 | 89 | 1.0 | 2.0 | 0.00 | 0.00 | 0.00 | 92 | 1009.9 |
| 20260504140505 | 50 | 161 | 0.0 | 2.0 | 0.00 | 0.00 | 0.00 | 92 | 1009.9 |
| 20260504130504 | 49 | 331 | 0.0 | 1.0 | 0.00 | 0.00 | 0.00 | 91 | 1009.4 |
| 20260504100504 | 51 | 331 | 1.0 | 2.0 | 0.00 | 0.00 | 0.00 | 89 | 1009.4 |
| 20260504082005 | 52 | 344 | 1.0 | 2.0 | 0.00 | 0.00 | 0.00 | 86 | 1009.5 |
| 20260504081505 | 53 | 331 | 0.0 | 2.0 | 0.00 | 0.00 | 0.00 | 86 | 1009.5 |
| 20260504081004 | 53 | 314 | 1.0 | 2.0 | 0.00 | 0.00 | 0.00 | 85 | 1009.5 |
| 20260504080504 | 53 | 340 | 1.0 | 2.0 | 0.00 | 0.00 | 0.00 | 86 | 1009.5 |